Weather in Doma Radiotranssety

Russia / Ivanovo Oblast     56°59′18″N   41°05′06″E
temp.,
°C
wind,
m/s
gust,
m/s
humid.,
%
clouds,
%
prec.,
mm/h
press.,
hPa
HPBL,
m
7 march, sun
sun700:00−15sw33940 0.0 101132
03:00−15ssw47950 0.0 1009131
06:00−11s5139074 0.0 1004390
09:00−8ssw7149387 0.4 999813
12:00−6ssw71393100 1.3 995967
15:00−4ssw71194100 2.6 992912
18:00−5nw3780100 1.2 991251
21:00−9nw2377100 1.2 99142
8 march, mon
mon800:00−12w1173100 0.0 99121
03:00−12w2384100 0.0 99337
06:00−12w3392100 0.0 99343
09:00−11wsw129462 0.0 995121
12:00−7nne2289100 0.3 996390
15:00−6nnw4681100 0.5 999819
18:00−9nnw3892100 0.1 1002265
21:00−12nnw3895100 0.1 1005224
9 march, tue
tue900:00−13nnw389585 0.1 1007273
03:00−17nnw369781 0.1 1009137
06:00−21nnw369883 0.0 1012121
09:00−20nnw479452 0.0 1014264
12:00−16nnw358871 0.0 1015416
15:00−15nnw468886 0.0 1016591
18:00−18nnw3794100 0.0 1017148
21:00−20nnw3798100 0.1 1020196
10 march, wed
wed1000:00−24nnw369884 0.0 102197
03:00−26nnw349842 0.0 102378
06:00−28nnw33980 0.0 102476
09:00−25n35930 0.0 1025238
12:00−19nnw34820 0.0 1026412
15:00−16nw35790 0.0 1025546
18:00−19wnw33920 0.0 102543
21:00−20wnw36960 0.0 1026120
11 march, thu
thu1100:00−22wnw36960 0.0 1026112
03:00−22wnw36940 0.0 102792
06:00−23wnw349216 0.0 102774
09:00−18w358524 0.0 1027174
12:00−11w34750 0.0 1027354
15:00−9sw34720 0.0 1025520
18:00−14s23870 0.0 102422
21:00−14s410930 0.0 1024219